Location: Baia de Cri?
(46.1667°N, 22.7167°E)
Time: 22:40:05
(UTC+00:00)

Landsat 7 - Pass Details

Date: 15 January 2026
Orbit: 680 x 682 km, 97.9° (Epoch: 11 February)

Event Time Altitude Azimuth Distance (km) Brightness Sun altitude
Rises 04:57:58 0° 13° (NNE) 3,053 7.1 -11.8°
Reaches altitude 10° 05:00:13 10° 14° (NNE) 2,133 6.3 -11.5°
Maximum altitude 05:04:54 87° 105° (ESE) 688 3.8 -10.7°
Drops below altitude 10° 05:09:32 10° 193° (SSW) 2,115 6.4 -9.9°
Sets 05:11:45 0° 194° (SSW) 3,025 7.2 -9.6°
